Regional Weather Roundup
Issued by NWS

Home | Current Version | Previous Version | Graphics & Text | Print | Product List | Glossary On
Versions: 1 2 3 4 5 6 7 8 9 10 11 12 13 14 15 16 17 18 19 20 21 22 23 24 25 26 27 28 29 30 31 32 33 34 35 36 37 38 39 40 41 42 43 44 45 46 47 48 49 50
000
ASUS43 KLOT 301808
RWRIL

ILLINOIS REGIONAL WEATHER ROUNDUP
NATIONAL WEATHER SERVICE CHICAGO/ROMEOVILLE IL
100 PM CDT SUN AUG 30 2015

NOTE: "FAIR" INDICATES FEW OR NO CLOUDS BELOW 12,000 FEET WITH NO
SIGNIFICANT WEATHER AND/OR OBSTRUCTIONS TO VISIBILITY.

* THESE STATIONS ARE NOT UNDER NWS QUALITY CONTROL. THEY ALSO MAY NOT
  REPORT WEATHER SUCH AS PRECIPITATION OR FOG.

ILZ001-002-007-009-015-016-024-301900-
NORTHWEST ILLINOIS

CITY           SKY/WX    TMP DP  RH WIND       PRES   REMARKS
MOLINE         SUNNY     77  64  64 NE5       30.07F
6HR MIN TEMP:  63; 6HR MAX TEMP:  77;

STERLING*        N/A    N/A N/A N/A MISG        N/A
SAVANNA*       CLOUDY    73  61  65 CALM      30.07F
$$

ILZ003-004-008-010-011-017-018-301900-
NORTH CENTRAL ILLINOIS

CITY           SKY/WX    TMP DP  RH WIND       PRES   REMARKS
ROCKFORD       CLOUDY    72  61  68 CALM      30.09F
6HR MIN TEMP:  65; 6HR MAX TEMP:  72;

FREEPORT*      CLOUDY    70  61  74 SE3       30.11F
ROCHELLE*      CLOUDY    71  62  72 CALM      30.09F
DE KALB*       CLOUDY    71  62  72 CALM      30.09F
PERU*          CLOUDY    71  64  79 S3        30.09F HAZE
$$

ILZ005-006-012>014-019>023-301900-
NORTHEAST ILLINOIS

CITY           SKY/WX    TMP DP  RH WIND       PRES   REMARKS
CHICAGO-OHARE  CLOUDY    70  63  78 CALM      30.07F
6HR MIN TEMP:  65; 6HR MAX TEMP:  71;

CHICAGO-MIDWAY PTSUNNY   75  63  66 VRB5      30.07F
6HR MIN TEMP:  67; 6HR MAX TEMP:  76;

AURORA         CLOUDY    74  63  68 CALM      30.08F
6HR MIN TEMP:  63; 6HR MAX TEMP:  74;

LANSING*       CLOUDY    73  65  74 CALM      30.08S
JOLIET*        CLOUDY    76  66  70 CALM      30.08F
WAUKEGAN       CLOUDY    70  64  81 CALM      30.07F
6HR MIN TEMP:  63; 6HR MAX TEMP:  71;

DUPAGE AIRPORT CLOUDY    72  61  68 W6        30.08S
6HR MIN TEMP:  65; 6HR MAX TEMP:  73;

KANKAKEE*      CLOUDY    75  69  80 CALM      30.08F
WHEELING       CLOUDY    72  63  73 CALM      30.09F
6HR MIN TEMP:  65; 6HR MAX TEMP:  72;

MORRIS*        CLOUDY    74  65  75 CALM      30.06F
ROMEOVILLE*    CLOUDY    74  62  68 CALM      30.08F
NORTHERLY ISL    N/A     67  64  90 NE3         N/A
$$

LMZ740>746-301900-
SOUTHERN LAKE MICHIGAN

STATION/POSITION SKY/WX   TEMP    WIND        PRES    VSBY  WAVE
                          AIR SEA DIR/SP/G                  HT/PER
                          (F)     (DEG/KT/KT) (MB)    (MI)  (FT/S)
SOUTHERN BUOY              66 69  320/  8/ 10 1017.9S         1
WILMETTE HARBOR            60 60  140/  4/  6   N/A           1/ 3
HARRISON CRIB              63     350/  9/  9   N/A
BURNHAM HARBOR             68      10/  5/  8   N/A
BURNS HARBOR               68     330/  6/  7 1019.3S
MICHIGAN CITY              70     280/  5/  6   N/A
MICHIGAN CITY 6N           69 71  300/  6/  8   N/A           1/ 3
ST. JOSEPH                 69 71  300/  8/  8   N/A           1/ 3
$$

ILZ025>027-034>036-040-047-049-050-058-095>099-301900-
WEST-CENTRAL ILLINOIS

CITY           SKY/WX    TMP DP  RH WIND       PRES   REMARKS
QUINCY         CLOUDY    82  69  64 NE5       30.05F HX  85
GALESBURG*     SUNNY     78  67  70 N3        30.07F
MACOMB*        MOSUNNY   76  69  79 CALM      30.09F
JACKSONVILLE*  CLOUDY    84  73  69 CALM      30.05F HX  90
PITTSFIELD*    SUNNY     85  70  61 CALM      30.05F HX  89
$$

ILZ028>032-037-038-041>044-048-051>054-059>061-301900-
CENTRAL ILLINOIS

CITY           SKY/WX    TMP DP  RH WIND       PRES   REMARKS
PONTIAC        CLOUDY    76  69  80 CALM      30.09F HAZE
BLOOMINGTON    MOSUNNY   79  71  76 VRB3      30.09F HX  82
DECATUR        MOSUNNY   84  67  56 VRB7      30.05F HX  86
PEORIA         PTSUNNY   80  67  64 CALM      30.07F HX  82
6HR MIN TEMP:  69; 6HR MAX TEMP:  80;

LACON*         CLOUDY    68  65  90 CALM      30.08S
LINCOLN*       PTSUNNY   83  69  64 CALM      30.05F HX  86
SPRINGFIELD    PTSUNNY   84  69  60 VRB3      30.05F HX  88
6HR MIN TEMP:  65; 6HR MAX TEMP:  85;

TAYLORVILLE    SUNNY     81  68  65 SW5       30.05F HX  83
$$

ILZ033-039-045-046-055>057-062-063-301900-
EAST-CENTRAL ILLINOIS

CITY           SKY/WX    TMP DP  RH WIND       PRES   REMARKS
CHAMPAIGN      MOSUNNY   80  70  71 CALM      30.07F HX  83
RANTOUL*       CLOUDY    79  72  78 CALM      30.07F HX  82
MATTOON        PTSUNNY   83  64  52 VRB7      30.06F HX  84
PARIS*         MOSUNNY   83  66  55 S9        30.07F HX  86
$$

ILZ079-100>102-301900-
SOUTHWEST ILLINOIS

CITY           SKY/WX    TMP DP  RH WIND       PRES   REMARKS
BELLEVILLE     MOSUNNY   85  71  64 VRB5      30.03F HX  90
CAHOKIA*       SUNNY     86  66  51 VRB5      30.04F HX  88
SPARTA*        SUNNY     82  71  69 S9        30.06F HX  87
$$

ILZ064>066-069>071-074>076-080>082-084>086-088>090-092>094-301900-
SOUTH-CENTRAL ILLINOIS

CITY           SKY/WX    TMP DP  RH WIND       PRES   REMARKS
CARBONDALE     MOSUNNY   82  71  69 SW10      30.07F HX  86
6HR MIN TEMP:  68; 6HR MAX TEMP:  83;

CAIRO*         PTSUNNY   79  76  91 S3        30.07F HX  82
EFFINGHAM*     PTSUNNY   84  63  48 S8        30.08F HX  85
MARION         PTSUNNY   84  72  65 S8        30.08F HX  89
MT. VERNON     MOSUNNY   84  66  54 SW9       30.07F HX  86
SALEM*         SUNNY     84  67  55 SW6       30.07F HX  87
METROPOLIS*    CLOUDY    82  75  79 CALM      30.09S HX  89
$$

ILZ067-068-072-073-078-083-087-091-301900-
SOUTHEAST ILLINOIS

CITY           SKY/WX    TMP DP  RH WIND       PRES   REMARKS
LAWRENCEVILLE  MOSUNNY   86  65  49 S9        30.07F HX  88
FLORA*         MOSUNNY   85  65  51 SW8       30.07F HX  86
FAIRFIELD*     MOSUNNY   83  69  62 S7        30.06F HX  87
HARRISBURG*    MOSUNNY   80  70  71 SE3       30.08F HX  83
ROBINSON*      MOSUNNY   83  66  57 SW7       30.08F HX  85
CARMI*         PTSUNNY   80  73  78 S5        30.07F HX  84
$$

ABBREVIATIONS USED IN REMARKS
   TC - TEMPERATURE IN CELSIUS
  WCI - WIND CHILL INDEX
   HX - HEAT INDEX
  VSB - VISIBILITY
$$



USA.gov is the U.S. government's official web portal to all federal, state and local government web resources and services.